Location: Montjuich
(41.3670°N, 2.1670°E)
Time: 12:35:44
(UTC+01:00)

ISS - Visible Passes

Search period start: 25 November 2017 00:00
Search period end: 05 December 2017 00:00
Orbit: 401 x 407 km, 51.6° (Epoch: 25 November)

Date Brightness Start Highest point End Pass type
(mag) Time Alt. Az. Time Alt. Az. Time Alt. Az.
25 Nov -1.6 19:13:46 10° S 19:14:53 16° S 19:14:53 16° S visible
26 Nov -1.5 18:23:01 10° SSE 18:24:13 12° SE 18:25:02 11° ESE visible
26 Nov -0.9 19:56:58 10° WSW 19:57:43 16° WSW 19:57:43 16° WSW visible
27 Nov -3.5 19:04:42 10° SW 19:07:46 52° SSE 19:07:46 52° SSE visible
28 Nov -2.5 18:12:48 10° SSW 18:15:38 27° SE 18:17:44 15° E visible
28 Nov -1.3 19:48:56 10° W 19:50:24 22° W 19:50:24 22° W visible
29 Nov -3.6 18:56:17 10° WSW 18:59:32 64° NNW 19:00:16 46° NNE visible
30 Nov -3.7 18:03:53 10° SW 18:07:07 67° SE 18:10:04 12° ENE visible
30 Nov -1.3 19:41:11 10° WNW 19:42:43 19° NW 19:42:43 19° NW visible
01 Dec -2.5 18:48:15 10° W 18:51:15 32° NNW 18:52:28 24° NNE visible
02 Dec -3.3 17:55:30 10° WSW 17:58:43 53° NNW 18:01:57 10° NE visible
02 Dec -1.2 19:33:33 10° NW 19:34:47 15° NNW 19:34:47 15° NNW visible
03 Dec -1.9 18:40:29 10° WNW 18:43:03 21° NNW 18:44:26 16° NNE visible
04 Dec -2.3 17:47:29 10° W 17:50:23 28° NNW 17:53:18 10° NE visible
04 Dec -1.1 19:25:49 10° NW 19:26:40 13° NNW 19:26:40 13° NNW visible
